Regional Weather Roundup
Issued by NWS

Home | Current Version | Previous Version | Text Only | Print | Product List | Glossary On
Versions: 1 2 3 4 5 6 7 8 9 10 11 12 13 14 15 16 17 18 19 20 21 22 23 24 25 26 27 28 29 30 31 32 33 34 35 36 37 38 39 40 41 42 43 44 45 46 47 48 49 50
000
ASUS45 KABQ 071710
RWRNM
NEW MEXICO REGIONAL WEATHER ROUNDUP
NATIONAL WEATHER SERVICE ALBUQUERQUE NM
1000 AM MST WED DEC 07 2016

NOTE: "FAIR" MEANS FEW OR NO CLOUDS BELOW 12,000 FEET AGL WITH NO
       SIGNIFICANT WEATHER OR OBSTRUCTIONS TO VISION.

      THIS PRODUCT IS RELEASED AS TWO VERSIONS.  ONE VERSION NEAR
      THE TOP OF THE HOUR CONTAINING PRELIMINARY DATA FROM ALBUQUERQUE
      AND OTHER STATIONS.  A FINAL VERSION WITH ADDITIONAL DATA IS
      ISSUED ABOUT 10 MINUTES AFTER THE HOUR.

NMZ501-503-504-510>518-071800-
NORTHWEST PLATEAU/NORTHCENTRAL MOUNTAINS

CITY           SKY/WX    TMP DP  RH WIND       PRES   REMARKS
FARMINGTON     PTSUNNY   32  13  45 W15       30.09R WCI  22
LOS ALAMOS     CLOUDY    35  19  52 E6        30.02R WCI  30
SANTA FE       CLOUDY    41  20  43 W21G26    30.02R
TAOS           CLOUDY    32  12  43 W17       30.01R WCI  21
ANGEL FIRE     LGT SNOW  24  18  75 SW6G12    29.99R WCI  17

$$
NMZ402-403-502-505>509-071800-
WESTCENTRAL MOUNTAINS/SOUTHWEST MOUNTAINS

CITY           SKY/WX    TMP DP  RH WIND       PRES   REMARKS
GALLUP         FAIR      34  23  64 E3        30.09R
GRANTS         CLOUDY    35  21  55 N14       30.09R WCI  26
SILVER CITY    FAIR      47  32  56 W10       30.08R

$$
NMZ407-409-411-412-071800-
SOUTHERN DESERTS

CITY           SKY/WX    TMP DP  RH WIND       PRES   REMARKS
DEMING         FAIR      48  33  56 W9        30.07R
LAS CRUCES     FAIR      49  32  52 W9        30.08R
HOLLOMAN AFB   FAIR      54  29  39 SW9       30.06R
T OR C         FAIR      50  28  42 E6        30.03R

$$
NMZ519>523-071800-
CENTRAL VALLEYS/CENTRAL HIGHLANDS

CITY           SKY/WX    TMP DP  RH WIND       PRES   REMARKS
ALBUQUERQUE    PTSUNNY   43  25  49 N8        30.06R
DOUBLE EAGLE   PTSUNNY   39  23  52 NW9       30.06R WCI  33
MORIARTY ARPT  CLOUDY    40  24  51 N12       30.04R WCI  33
CLINES CORNERS PTSUNNY   39  23  52 NW22      30.01R WCI  29
BELEN          PTSUNNY   46  28  50 W14G20    30.04R
SOCORRO        FAIR      51  24  34 W9G20     30.04S

$$
NMZ524>526-539-540-071800-
SOUTHCENTRAL MOUNTAINS

CITY           SKY/WX    TMP DP  RH WIND       PRES   REMARKS
RUIDOSO        FAIR      45  23  42 SE8       30.02

$$
NMZ527>531-071800-
NORTHEAST HIGHLANDS/NORTHEAST PLAINS

CITY           SKY/WX    TMP DP  RH WIND       PRES   REMARKS
LAS VEGAS      FAIR      42  15  33 W16       29.94R
RATON          FAIR      29   9  43 NE22      29.95R WCI  15
CLAYTON        FAIR      30  15  53 NW20G30   30.04R WCI  17

$$
NMZ532>537-071800-
EASTCENTRAL PLAINS

CITY           SKY/WX    TMP DP  RH WIND       PRES   REMARKS
TUCUMCARI      FAIR      34  13  41 NE17      30.04R WCI  23
CANNON AFB     FAIR      38  38  99 W8        30.01R WCI  32
CLOVIS AIRPORT FAIR      34  30  86 W5        30.01R WCI  30

$$
NMZ028-029-538-071800-
SOUTHEAST PLAINS

CITY           SKY/WX    TMP DP  RH WIND       PRES   REMARKS
ROSWELL        FAIR      34  28  79 N9        30.00R WCI  27
ARTESIA        FAIR      36  36 100 N8        30.00R WCI  29
CARLSBAD       FAIR      37  37 100 S7        29.98R WCI  32
HOBBS          SUNNY     39  39 100 S3        30.01R


$$




USA.gov is the U.S. government's official web portal to all federal, state and local government web resources and services.